Location: Badger Butte
(44.9311°N, 118.3053°W)
Time: 11:50:33
(UTC+00:00)

Daily predictions for brighter satellites

Satellite Brightness Start Highest point End
(mag) Time Altitude Azimuth Time Altitude Azimuth Time Altitude Azimuth
Cosmos 2184 Rocket 4.4 12:08:00 10° S 12:14:00 59° E 12:20:07 10° NNE
Meteor 1-20 Rocket 4.3 12:28:01 67° NE 12:28:01 67° NE 12:32:49 10° NNE
Feng Yun 1-1 Rocket 4.4 12:22:12 10° NNE 12:27:48 70° ESE 12:33:14 10° S
Cosmos 2333 Rocket 4.5 12:34:29 11° N 12:34:29 11° N 12:34:49 10° N
DNEPR-1 R/B 4.4 12:32:54 72° SW 12:33:39 84° NW 12:39:35 10° NE
Cosmos 1943 Rocket 4.0 12:32:15 15° N 12:35:31 26° NE 12:40:03 10° ESE
Lacrosse 5 rocket 3.9 12:38:18 14° NNE 12:38:18 14° NNE 12:39:22 10° NNE
Cosmos 2056 Rocket 3.4 12:40:01 78° SSE 12:40:01 78° SSE 12:44:46 10° SSE
Okean 1 Rocket 4.3 12:35:44 10° SSE 12:39:51 41° E 12:43:58 10° NNE
Lacrosse 4 Rocket 3.9 12:39:10 13° NNE 12:40:27 15° NE 12:42:50 10° ENE
COSMO-SKYMED 1 3.1 12:43:12 10° SSE 12:47:26 55° ENE 12:48:37 41° NNE
SL-16 R/B 3.5 12:50:56 26° N 12:50:56 26° N 12:53:48 10° NNE
ADEOS II 4.0 12:45:55 10° N 12:46:57 16° N 12:46:57 16° N
Ariane Rocket 4.4 12:47:49 10° NNE 12:52:31 37° E 12:57:11 10° SSE
Cosmos 1624 Rocket 3.9 12:53:12 66° WSW 12:53:12 66° WSW 12:58:16 10° S
Cosmos 1602 4.2 12:50:48 10° S 12:54:41 60° E 12:58:36 10° NNE
Cosmos 44 Rocket 3.6 12:52:42 29° SSW 12:55:23 71° ESE 13:00:29 10° NE
USA 215 3.7 12:53:57 10° NE 13:00:24 61° SE 13:06:51 10° SW
Okean 1-7 Rocket 3.8 12:58:58 30° N 13:01:05 67° E 13:05:25 10° SSE
Cosmos 1300 Rocket 3.4 12:59:27 10° S 13:03:52 86° W 13:08:18 10° N
Lacrosse 5 1.9 13:03:19 41° SW 13:05:08 81° SE 13:10:16 10° NE
Meteor 1-19 Rocket 4.3 12:59:58 10° N 13:05:52 83° E 13:11:38 10° SSE
Cosmos 192 4.2 13:01:34 10° SSW 13:06:28 88° WNW 13:11:24 10° NNE
Meteor 1-28 Rocket 4.2 13:03:14 10° SE 13:06:52 45° ENE 13:09:25 18° N
Cosmos 1340 4.5 13:11:22 10° N 13:14:47 31° ENE 13:18:11 10° SE
CENTAUR R/B 3.5 13:15:44 29° NW 13:16:30 29° NNW 13:22:40 10° NNE
Tiangong 2 1.8 13:17:36 45° SSE 13:17:36 45° SSE 13:20:18 10° ESE
SKYMED 3 4.4 13:13:08 10° S 13:17:27 71° WSW 13:19:02 38° NNW
Cosmos 2237 Rocket 4.3 13:19:51 11° NNW 13:19:51 11° NNW 13:20:20 10° N
Meteor 1-11 Rocket 3.7 13:12:15 10° S 13:18:05 89° E 13:23:50 10° N
Nadezhda 3 Rocket 3.9 13:14:39 10° N 13:21:02 76° W 13:27:22 10° S
CSL-04 Rocket 4.3 13:19:03 10° NNE 13:24:33 60° ESE 13:29:58 10° S
Meteor 1-13 Rocket 4.4 13:21:20 14° NNW 13:26:28 57° W 13:32:15 10° S
Cosmos 1452 Rocket 3.4 13:25:09 20° NNW 13:28:51 82° WSW 13:34:07 10° SSE
Meteor 1-23 Rocket 4.2 13:25:50 10° N 13:31:26 84° E 13:37:00 10° SSE
Radarsat Rocket 4.5 13:28:12 10° NNE 13:35:15 74° WNW 13:43:13 10° SSW
USA 129 2.8 13:33:22 10° SSE 13:35:25 42° ENE 13:35:26 42° ENE
SKYMED 2 3.8 13:31:22 10° S 13:35:32 45° W 13:37:15 30° NW
Cosmos 962 Rocket 4.4 13:32:01 10° S 13:38:13 80° W 13:44:32 10° N
Meteor 2-4 Rocket 3.6 13:33:42 10° NNW 13:39:13 73° W 13:44:52 10° S
Meteor 2-13 Rocket 4.4 13:33:17 10° SSW 13:39:23 63° WNW 13:45:31 10° N
Okean 2 3.7 13:35:59 10° N 13:40:11 70° E 13:44:20 10° SSE
ATLAS 3B R/B 4.5 13:36:23 10° NNW 13:41:09 19° NNE 13:45:53 10° ENE
Cosmos 2369 Rocket 2.3 13:38:10 22° NW 13:41:48 54° WSW 13:47:19 10° S
Cosmos 1603 4.3 13:43:07 18° WSW 13:46:36 35° NW 13:51:46 10° NNE
ATLAS 5 CENTAUR R/B 4.3 13:43:53 10° NNW 13:47:08 15° NNE 13:50:33 10° NE
CZ-4C R/B 4.4 13:42:51 10° NNW 13:47:46 21° NNE 13:53:07 10° ENE
NOAA 6 4.4 13:44:16 10° N 13:49:00 38° WNW 13:53:43 10° SW
Cosmos 44 3.4 13:44:10 10° SW 13:49:31 73° NW 13:54:41 10° NNE
Cosmos 2341 Rocket 3.9 13:43:37 10° SSW 13:49:51 66° W 13:56:05 10° N
Meteor 1-5 Rocket 4.2 13:45:18 10° S 13:50:39 81° E 13:55:58 10° NNE
Cosmos 1536 3.0 13:49:38 10° SSW 13:53:29 45° WNW 13:57:22 10° N
CZ-4 R/B 2.1 13:50:33 10° NNE 13:54:26 54° E 13:58:15 10° S
Cosmos 1025 Rocket 3.2 13:51:47 10° NNW 13:56:01 48° W 14:00:12 10° SSW
Cosmos 839 Rocket 4.1 13:53:52 11° NNW 14:00:27 88° ENE 14:06:35 10° SSE
Cosmos 1633 3.6 13:57:35 10° SW 14:00:33 23° WNW 14:03:32 10° NNW
PAYLOAD A 4.3 13:56:42 10° NNE 14:02:07 80° ESE 14:07:34 10° S
YAOGAN 1 3.7 13:58:53 10° NNE 14:03:05 47° E 14:07:15 10° S
Abrixas rocket 2.2 14:01:33 22° W 14:03:34 66° NNW 14:06:55 10° ENE
Cosmos 1943 3.4 14:03:54 10° SW 14:09:19 47° WNW 14:14:47 10° NNE
SJ-12 4.2 14:05:39 10° NNE 14:09:49 74° ESE 14:13:58 10° S
Cosmos 1269 Rocket 4.0 14:05:23 10° SSW 14:10:40 90° ESE 14:16:01 10° NNE
Cosmos 1602 Rocket 4.5 14:09:10 10° N 14:13:33 51° ENE 14:17:53 10° SSE
Lacrosse 5 rocket 3.3 14:14:01 10° NNW 14:17:07 19° NNE 14:20:20 10° ENE
Okean 1 Rocket 4.3 14:14:45 10° WSW 14:17:57 19° WNW 14:21:08 10° NNW
USA 229 DEB 3.7 14:11:59 10° SW 14:18:52 78° NW 14:25:54 10° NE
USA 229 3.7 14:12:04 10° SW 14:18:58 78° NW 14:26:00 10° NE
Cosmos 1943 Rocket 2.3 14:14:15 10° NNW 14:19:37 56° WSW 14:24:59 10° S
Lacrosse 4 Rocket 1.3 14:15:34 10° NNW 14:19:44 78° WSW 14:23:47 10° SSE
Cosmos 1544 Rocket 3.5 14:15:31 10° SSW 14:19:50 63° W 14:24:13 10° N
IRS-1A Rocket 4.3 14:14:14 10° N 14:19:56 72° WNW 14:25:42 10° SSW
Meteor 2-19 Rocket 4.4 14:15:42 10° SSW 14:21:46 70° W 14:27:53 10° N
Cosmos 1420 Rocket 4.3 14:16:52 10° NNW 14:21:54 48° WSW 14:26:52 10° S
COSMO-SKYMED 1 4.2 14:21:27 10° SW 14:23:56 15° W 14:25:50 12° WNW
Ariane Rocket 3.7 14:27:00 10° N 14:31:22 30° WNW 14:35:42 10° SW
Meteor 1-29 2.8 14:29:26 10° S 14:32:47 74° WSW 14:36:11 10° NNW
CZ-2C R/B 2.5 14:27:50 10° N 14:33:02 79° WNW 14:38:04 10° SSW
SPOT 3 Rocket 3.5 14:30:28 10° NNE 14:35:39 85° WNW 14:40:48 10° SSW
Cosmos 1500 3.3 14:32:11 10° S 14:35:55 82° E 14:39:42 10° N
Cosmos 1048 Rocket 4.0 14:32:58 10° SW 14:38:01 59° WNW 14:43:11 10° NNE
Cosmos 1331 Rocket 4.4 14:33:00 10° NNW 14:38:10 67° ENE 14:43:17 10° SSE
AQUARIUS 4.1 14:33:45 10° N 14:38:14 68° WNW 14:42:42 10° SSW
Cosmos 1975 2.8 14:34:44 10° SSW 14:38:49 75° W 14:42:57 10° N
CZ-3 R/B 3.5 14:39:01 10° SSW 14:39:49 10° SSW 14:40:32 10° SSW
Cosmos 1656 Rocket 3.7 14:36:21 10° NNW 14:42:02 79° WSW 14:47:42 10° SSE
USA 215 3.5 14:37:04 10° NE 14:43:21 52° NNW 14:49:37 10° W
SL-8 Rocket 4.4 14:38:47 10° SW 14:44:39 41° WNW 14:50:31 10° N
Cosmos 405 Rocket 3.2 14:41:12 10° N 14:45:00 61° ENE 14:48:42 10° SSE
Helios 1B rocket 2.9 14:42:08 10° S 14:46:05 43° W 14:50:04 10° NNW
Lacrosse 5 2.8 14:44:04 10° W 14:48:36 31° NNW 14:53:07 10° NE
Cosmos 1066 Rocket 4.1 14:46:27 10° NNW 14:51:52 77° W 14:57:20 10° S
